This demonstration page uses our WeatherBlox Daily Observations layout. Learn more.

Left ArrowRight Arrow

39.12711, -84.51439

Hourly Observations for July 27, 2021

Temp ( °F °C ) Dew Point ( °F °C ) Humidity (%) Winds ( mph kmh ) Pressure ( in mb ) Visibility ( mi km ) Precip ( " mm )
12:53 am 00:53 Clear 67 19.4 65 18.3 93 93 N N/A 30.03 1017 10 16 N/A
1:53 am 01:53 Clear 66 18.9 64 17.8 93 93 N N/A 30.03 1017 8 13 N/A
2:53 am 02:53 Clear with Mist and Fog 65 18.3 64 17.8 97 97 N N/A 30.03 1017 6 10 N/A
3:53 am 03:53 Clear with Mist and Fog 64 17.8 63 17.2 96 96 N N/A 30.03 1017 6 10 N/A
4:53 am 04:53 Clear with Mist and Fog 64 17.8 63 17.2 96 96 N N/A 30.03 1017 4 6 N/A
5:03 am 05:03 Clear with Mist and Fog 63 17.2 62 16.7 97 97 N N/A 30.04 1017 3 4 N/A
5:10 am 05:10 Clear with Mist and Fog 64 17.8 63 17.2 96 96 N N/A 30.04 1017 3 5 N/A
5:32 am 05:32 Clear with Mist and Fog 62 16.7 61 16.1 96 96 N N/A 30.04 1017 2 2 N/A
5:41 am 05:41 Mostly Cloudy with Fog 62 16.7 61 16.1 96 96 N N/A 30.03 1017 1 1 N/A
5:53 am 05:53 Mostly Clear with Mist and Fog 62 16.7 62 16.7 100 100 N N/A 30.03 1017 1 2 N/A
5:56 am 05:56 Mostly Clear with Mist and Fog 63 17.2 62 16.7 97 97 N N/A 30.04 1017 3 5 N/A
6:27 am 06:27 Clear with Mist and Fog 63 17.2 62 16.7 97 97 N N/A 30.04 1017 1 2 N/A
6:31 am 06:31 Mostly Cloudy with Mist and Fog 62 16.7 62 16.7 100 100 N N/A 30.04 1017 1 1 N/A
6:41 am 06:41 Sunny with Mist and Fog 63 17.2 62 16.7 97 97 N N/A 30.04 1017 1 2 N/A
6:53 am 06:53 Partly Cloudy with Mist and Fog 63 17.2 62 16.7 97 97 ENE 3 6 30.04 1017 6 10 N/A
7:53 am 07:53 Sunny 66 18.9 64 17.8 93 93 N N/A 30.05 1018 8 13 N/A
8:53 am 08:53 Sunny 71 21.7 66 18.9 84 84 N N/A 30.07 1018 8 13 N/A
9:53 am 09:53 Sunny 77 25 65 18.3 66 66 N N/A 30.08 1019 10 16 N/A
10:53 am 10:53 Sunny 80 26.7 66 18.9 62 62 N N/A 30.07 1018 10 16 N/A
11:53 am 11:53 Sunny 85 29.4 61 16.1 45 45 N N/A 30.06 1018 10 16 N/A
12:53 pm 12:53 Sunny 88 31.1 63 17.2 43 43 N N/A 30.06 1018 10 16 N/A
1:53 pm 13:53 Sunny 88 31.1 63 17.2 43 43 ENE 3 6 30.04 1017 10 16 N/A
2:53 pm 14:53 Sunny 90 32.2 62 16.7 39 39 NE 3 6 30.03 1017 10 16 N/A
3:53 pm 15:53 Sunny 90 32.2 62 16.7 39 39 N 5 7 30.03 1017 10 16 N/A
4:53 pm 16:53 Sunny 91 32.8 60 15.6 35 35 N 9 15 30.01 1016 10 16 N/A
5:53 pm 17:53 Sunny 90 32.2 61 16.1 38 38 NE 5 7 30.00 1016 10 16 N/A
6:53 pm 18:53 Sunny 88 31.1 66 18.9 48 48 NE 5 7 30.00 1016 10 16 N/A
7:53 pm 19:53 Sunny 84 28.9 69 20.6 61 61 ENE 3 6 30.00 1016 10 16 N/A
8:53 pm 20:53 Sunny 79 26.1 69 20.6 72 72 N N/A 30.01 1016 10 16 N/A
9:53 pm 21:53 Clear 73 22.8 68 20 84 84 N N/A 30.01 1016 10 16 N/A
10:53 pm 22:53 Clear 72 22.2 68 20 87 87 N N/A 30.04 1017 9 14 N/A
11:53 pm 23:53 Clear 70 21.1 67 19.4 90 90 N N/A 30.04 1017 9 14 N/A

Powered by AerisWeather